GFSSW_850_rhum_006.txt.gz
RH
16 16 17 18 19 25 23 22 15 15 14 11 26 26 24 24 24 24 24 24 19 24 28 28 29 28 26 25 23 22 43 40 28 25 28 27 27 30 39 45 42 42 40 34 26
16 18 20 19 18 25 23 22 15 14 16 30 27 25 22 23 22 24 24 22 20 29 28 27 26 25 26 28 26 32 45 29 25 24 38 40 36 31 40 46 41 32 28 27 23
17 18 20 18 17 21 24 23 14 15 29 31 29 32 38 34 22 29 29 21 23 28 27 25 24 24 26 27 29 29 32 27 28 25 23 34 42 38 40 50 45 44 37 26 23
18 20 20 19 16 18 24 24 16 20 30 32 28 28 34 38 30 28 29 28 30 28 26 26 25 24 29 29 26 30 26 26 25 25 24 38 40 44 44 43 34 31 28 26 24
21 21 21 20 17 19 23 24 22 23 30 31 32 25 24 25 27 28 24 29 27 27 26 25 25 26 29 26 24 27 24 27 34 32 36 34 40 41 41 36 30 29 28 29 29
22 24 22 20 17 21 21 23 23 27 29 29 24 24 24 28 23 22 26 24 25 26 24 21 22 24 26 27 28 27 27 27 30 32 34 38 38 35 39 31 26 25 26 26 27
26 24 22 19 20 19 21 24 26 27 26 25 22 22 25 26 23 17 23 24 25 24 23 23 22 22 26 26 24 23 30 28 28 28 34 27 44 44 38 29 29 29 33 38 41
28 24 22 20 19 22 26 26 26 25 25 24 24 25 27 19 16 20 22 22 24 25 25 22 20 22 23 26 25 28 33 40 31 31 31 34 58 41 35 30 29 31 34 36 39
28 24 24 23 24 27 26 26 26 25 24 22 22 23 26 18 19 23 22 23 23 24 24 22 18 21 24 31 36 41 40 38 34 37 34 40 54 41 36 30 35 32 32 30 28
27 25 28 27 26 25 26 27 28 24 23 22 24 21 22 25 22 22 19 21 23 23 19 18 22 35 34 39 41 38 38 35 37 40 40 47 52 42 39 37 42 40 38 36 38
28 27 29 28 28 27 25 24 22 25 26 29 28 27 21 21 20 21 20 20 23 23 36 25 37 41 35 31 27 31 32 33 37 40 47 51 44 41 42 44 46 45 41 40 38
29 26 29 28 27 26 26 32 22 24 26 26 21 24 22 19 18 18 21 20 21 30 30 30 39 34 33 33 32 31 32 35 46 42 47 44 46 39 41 47 50 50 46 46 46
27 28 28 27 27 27 28 21 21 24 24 23 25 22 24 23 25 25 20 25 30 32 34 36 30 31 28 38 36 34 31 34 33 47 46 43 50 43 38 46 48 46 46 49 58
27 27 28 27 28 28 23 23 27 28 31 31 24 24 22 23 25 26 26 24 29 37 31 34 30 31 33 35 37 31 31 35 38 47 56 49 72 50 45 49 50 47 46 51 57
21 26 29 30 28 27 24 26 24 29 28 26 25 23 24 26 27 25 27 23 33 34 28 32 35 36 36 34 34 29 36 37 40 49 45 56 63 68 45 54 53 49 50 54 58
19 23 26 29 27 26 26 26 22 23 34 28 26 29 25 28 33 26 28 26 30 34 35 37 30 33 34 32 31 34 32 30 41 50 48 48 56 69 60 52 53 49 50 56 63
20 20 26 27 27 26 26 21 30 35 28 29 31 31 36 36 40 47 53 59 59 33 53 43 36 36 33 34 35 42 32 28 24 30 27 48 48 61 47 45 48 51 52 58 70
22 20 23 23 25 24 25 27 30 35 36 33 31 33 38 39 46 53 54 64 58 55 64 51 34 42 36 34 38 43 37 28 22 27 28 52 54 50 45 43 45 48 53 63 78
23 23 25 30 26 24 27 46 35 37 35 33 32 34 40 40 42 53 65 65 60 61 49 58 40 39 38 33 32 34 54 41 48 49 54 64 43 40 37 43 44 49 58 68 77
27 28 26 34 27 27 44 57 48 46 40 34 34 37 41 48 42 52 56 58 59 54 54 52 50 41 37 32 32 37 36 23 42 34 30 47 75 59 50 54 53 54 58 70 84
30 31 40 28 30 27 48 52 47 46 39 36 38 43 46 45 48 58 60 58 55 54 41 45 55 36 34 47 46 43 41 40 41 56 54 71 51 46 48 50 57 51 60 77 85
31 42 41 38 38 66 65 48 43 44 40 42 42 42 44 46 52 59 59 61 49 48 43 42 55 50 43 39 31 33 34 33 36 26 54 64 51 38 42 41 50 52 64 78 90
31 41 42 37 46 74 60 57 54 45 49 46 46 42 43 50 52 62 63 54 37 32 33 35 42 39 27 31 26 29 29 29 39 47 51 48 39 38 35 45 49 57 68 88 96
28 46 38 34 44 61 60 56 56 48 48 45 48 42 45 49 58 69 68 57 39 38 42 38 47 36 28 25 33 38 33 33 38 50 48 51 49 33 42 53 54 65 84 97 94
32 42 44 52 48 52 51 54 54 50 47 44 47 46 44 51 50 62 64 51 37 38 35 33 35 39 37 38 38 38 37 36 41 40 46 38 41 39 52 54 60 73 89 97 93
35 37 42 51 49 49 53 51 53 56 48 46 50 47 44 48 44 56 56 52 43 35 38 43 37 42 32 42 40 41 37 35 35 35 40 41 51 44 48 58 71 80 96 97 98
36 34 30 62 55 49 53 55 53 49 49 50 48 49 47 43 38 38 38 37 34 39 44 47 47 38 31 45 45 44 46 38 34 33 36 51 45 53 59 67 80 96 100 98 94

GFSSW_850_rhum_009.txt.gz
RH
18 18 17 18 26 24 22 15 14 16 10 23 25 24 23 24 24 23 21 21 25 30 29 28 27 23 19 22 22 22 40 37 30 32 36 39 37 41 41 37 39 42 41 39 28
18 18 17 16 23 23 21 15 14 11 24 24 23 24 24 23 23 24 25 21 28 28 26 25 24 24 25 27 24 30 45 35 30 34 44 43 41 41 38 37 37 37 32 29 24
17 17 17 17 19 23 21 14 14 28 28 26 29 36 37 31 22 30 29 25 26 26 24 24 23 23 25 25 29 28 37 31 34 37 39 40 40 42 41 38 43 42 40 36 30
18 19 18 18 19 24 22 14 24 30 32 29 29 30 28 26 31 28 30 30 28 26 25 23 22 23 28 31 27 33 37 31 37 34 36 38 38 41 41 41 38 39 37 28 26
19 19 20 19 19 23 23 17 26 29 30 30 25 24 24 24 24 26 24 26 26 25 21 22 21 24 31 27 26 32 34 38 39 38 40 39 40 38 38 32 34 34 28 31 32
22 22 21 18 22 22 24 23 29 30 26 24 23 22 20 26 20 22 24 24 24 22 20 20 23 23 25 29 33 32 35 36 38 37 38 38 40 36 37 31 29 27 37 35 28
24 22 20 19 22 22 24 25 28 28 23 23 22 19 18 21 18 22 23 24 24 24 23 23 22 23 25 28 28 30 32 30 36 36 36 35 43 39 34 28 27 29 31 30 31
23 22 22 21 21 24 26 26 25 24 24 24 23 18 21 21 23 22 22 24 24 24 20 16 20 20 25 25 26 28 34 35 36 36 37 35 59 37 36 29 39 33 31 34 35
25 23 22 23 26 27 26 26 25 24 23 23 22 19 23 23 22 22 23 23 24 22 18 19 17 21 24 29 32 36 39 39 39 40 36 38 47 38 39 40 41 36 34 36 36
26 25 25 26 27 27 28 27 26 25 23 24 20 16 20 23 23 20 20 22 23 20 16 18 21 32 34 29 26 33 38 38 44 40 38 43 44 41 44 44 47 41 39 37 39
27 28 27 27 26 28 27 25 23 21 23 29 25 24 22 21 22 21 20 22 22 19 31 25 31 41 36 37 30 33 34 40 45 40 41 43 44 43 47 48 47 48 44 46 48
29 29 27 27 27 26 27 24 23 22 26 23 22 24 24 19 18 22 19 18 20 30 27 30 38 35 35 36 32 31 34 46 47 42 38 43 47 42 45 49 50 50 50 55 50
28 29 28 28 26 26 27 20 21 22 22 24 25 23 24 23 27 26 22 26 28 34 36 35 31 30 29 39 32 33 31 39 34 41 38 42 49 44 42 48 48 47 49 54 60
27 28 28 26 26 26 20 22 26 26 30 30 24 24 24 23 26 26 26 25 29 33 33 35 31 31 34 36 36 29 35 35 49 48 47 43 51 48 44 45 47 45 50 55 62
25 27 27 27 26 26 21 26 23 28 27 27 26 24 25 28 30 26 27 23 34 35 30 33 35 37 37 35 34 28 36 38 47 46 50 51 59 61 44 46 42 46 50 57 63
24 27 28 28 27 23 26 26 22 23 34 26 27 30 27 31 35 28 27 25 30 34 36 37 33 36 36 33 32 34 29 32 42 47 48 52 53 58 51 45 45 46 49 55 63
19 24 27 28 26 26 26 22 30 34 29 29 32 33 39 41 42 49 54 59 54 30 46 39 38 37 35 35 34 38 25 24 22 24 26 48 46 51 47 44 44 50 49 57 71
20 21 25 25 28 25 26 27 29 35 36 34 32 35 41 43 49 53 53 60 57 54 58 46 32 44 38 35 39 42 29 23 21 22 26 45 46 46 43 43 46 43 49 62 81
20 22 23 26 28 25 24 42 35 37 34 34 32 36 41 41 42 53 64 64 60 61 45 50 39 38 37 34 33 34 45 41 38 44 44 47 44 39 39 40 44 47 52 67 84
25 24 34 28 26 25 44 56 48 46 41 33 33 38 40 47 42 51 53 57 57 54 54 55 41 42 36 33 33 32 35 20 29 23 22 30 57 49 42 44 49 51 56 75 88
30 32 31 31 29 26 45 50 48 46 40 36 38 44 46 44 50 57 58 58 55 54 39 47 51 34 34 46 45 40 32 38 32 45 30 42 30 41 42 44 48 54 61 82 89
30 44 40 34 36 64 59 48 44 44 41 42 41 42 44 46 55 59 55 58 47 47 41 42 51 45 43 37 30 32 32 27 24 22 50 54 38 38 39 40 51 58 70 84 90
32 43 44 39 44 73 61 58 53 44 50 43 46 43 44 53 51 62 62 55 35 32 33 35 40 34 28 33 26 29 30 35 37 40 40 38 30 42 35 48 48 59 76 89 92
31 52 39 36 43 59 59 55 54 48 47 45 48 43 47 50 60 68 65 58 38 47 37 39 45 33 28 26 32 39 33 34 36 42 40 42 40 31 37 51 56 69 88 94 90
28 41 44 53 50 52 50 53 53 49 47 45 47 45 46 52 50 58 65 53 38 39 35 32 37 38 38 37 37 38 37 39 40 39 38 36 40 35 45 56 60 80 92 92 94
31 37 42 53 49 48 52 48 50 57 48 46 50 47 44 49 44 51 61 53 44 35 39 42 35 41 37 41 39 40 39 40 40 36 41 38 40 39 46 51 68 85 98 99 100
37 34 31 63 54 47 53 56 51 48 50 51 47 48 44 43 40 42 41 41 36 39 44 44 42 30 29 39 37 38 44 39 36 35 34 42 37 50 52 61 84 97 99 95 85

GFSSW_850_rhum_015.txt.gz
RH
18 19 27 25 24 18 14 18 11 20 27 27 26 23 22 24 27 28 32 28 25 24 22 19 22 24 21 24 24 18 17 25 24 24 32 27 26 27 28 28 30 31 31 31 31
18 18 22 24 20 16 16 13 20 25 24 24 24 23 24 24 21 27 26 24 24 23 30 21 20 18 20 22 22 17 26 29 23 25 29 28 27 28 27 27 28 28 30 30 29
17 18 19 25 19 15 12 19 24 22 24 30 29 23 20 23 20 25 26 24 24 22 22 26 22 19 22 23 24 23 29 26 26 28 29 29 28 28 27 29 30 29 29 30 30
18 18 18 24 18 13 18 25 23 27 30 29 28 28 31 21 21 25 25 25 22 22 24 20 18 20 23 23 25 27 26 29 29 28 27 26 26 28 29 31 31 32 31 31 32
19 18 18 23 16 18 26 29 29 28 25 23 22 22 22 20 25 24 24 22 21 22 23 19 18 18 22 24 25 28 28 29 29 27 26 26 26 28 28 29 29 30 32 33 35
21 20 18 22 16 24 29 29 26 24 23 20 20 21 22 22 26 25 23 25 22 23 24 21 20 20 23 24 24 27 26 26 26 26 26 25 26 24 26 26 27 29 32 34 35
21 18 21 22 17 27 29 26 24 20 21 21 22 22 22 26 25 25 25 20 18 22 24 23 24 21 24 26 25 25 27 26 26 26 25 26 26 25 24 24 25 26 30 34 35
19 18 23 22 20 28 28 25 23 23 20 19 21 22 24 24 25 24 25 25 22 16 20 24 25 23 23 25 23 22 23 28 26 26 27 29 35 26 24 24 25 26 28 31 34
20 23 22 24 26 26 24 24 24 23 20 19 21 18 22 23 23 23 23 23 22 18 17 20 22 22 22 20 23 22 22 24 29 25 25 27 33 28 26 25 25 26 27 29 32
23 22 24 26 25 25 25 24 23 22 21 18 18 17 22 24 22 22 23 22 23 19 16 18 18 18 17 19 23 18 19 22 24 25 25 27 29 28 27 26 26 26 28 30 32
22 26 27 26 26 25 24 21 20 18 24 23 21 20 22 22 20 22 22 21 20 15 14 17 15 21 20 20 20 17 16 18 27 28 27 27 28 28 28 27 26 27 30 31 34
27 28 27 28 27 26 25 22 20 22 23 24 22 23 23 22 19 22 20 17 17 15 14 14 22 21 17 20 18 17 15 19 27 27 27 27 27 27 28 28 30 30 32 33 36
28 28 29 28 27 27 28 16 19 21 16 23 24 23 24 23 24 25 24 21 16 15 16 18 21 20 17 18 18 16 18 18 19 29 26 27 31 32 29 31 31 32 33 32 38
29 29 30 27 30 23 19 19 20 18 15 21 20 22 24 24 25 26 24 25 20 19 19 21 19 19 18 20 20 18 24 20 21 29 26 27 25 34 30 31 30 28 31 32 37
30 31 30 28 29 24 20 22 21 24 18 20 21 22 23 24 27 25 25 21 21 22 22 28 23 22 19 25 22 20 23 24 26 27 25 30 32 33 28 31 27 26 29 29 36
30 31 29 26 24 20 23 25 20 19 26 23 22 22 18 22 25 23 23 24 24 19 20 25 27 24 25 24 24 23 19 20 27 25 30 28 25 33 30 28 26 26 28 31 37
31 30 28 28 34 22 22 25 22 20 22 24 24 22 22 25 24 25 24 26 25 26 21 24 25 26 25 21 24 15 16 19 23 25 23 24 23 29 28 26 28 29 30 32 39
30 29 28 27 24 20 21 21 21 24 22 24 24 23 24 27 26 24 24 23 26 28 21 21 24 27 22 26 26 22 22 20 25 21 18 22 24 32 26 29 28 29 30 34 43
29 29 29 25 24 23 24 20 24 22 22 24 24 23 25 26 25 23 28 29 32 30 30 22 24 29 26 24 24 20 21 22 20 15 19 16 27 28 28 25 26 27 30 38 47
31 32 26 26 24 23 22 34 29 31 28 25 23 25 22 25 25 24 26 35 34 34 32 27 26 28 28 28 22 21 17 21 17 24 26 20 18 26 34 24 25 28 33 42 50
30 35 29 26 23 25 23 33 32 38 35 27 26 26 26 27 26 27 30 37 34 30 28 25 25 26 25 25 24 23 19 17 17 18 24 25 23 21 25 27 30 30 36 45 56
33 30 29 26 27 28 26 30 36 35 37 32 29 29 28 30 29 30 31 36 36 32 27 25 25 21 21 22 21 26 20 17 20 19 16 18 22 21 23 28 27 29 40 48 57
46 43 32 29 25 31 40 40 39 35 36 32 34 34 32 33 36 35 37 38 34 28 28 25 23 22 26 30 22 22 20 19 17 18 20 23 22 23 24 23 26 32 44 49 58
44 37 41 37 33 27 32 33 40 46 40 38 36 34 32 34 36 40 40 49 36 38 30 35 27 25 23 23 23 22 23 21 20 21 19 19 18 20 18 24 27 34 45 54 60
31 44 44 38 36 29 30 32 36 38 39 38 36 32 30 33 34 36 41 44 39 45 32 29 32 26 22 20 22 25 24 21 24 19 21 18 20 18 22 25 27 34 49 61 63
45 43 42 44 37 32 38 34 32 41 35 34 35 35 32 32 34 32 36 35 34 32 28 31 31 25 21 22 23 25 21 20 20 20 21 21 22 22 23 24 31 42 59 68 65
35 31 40 51 36 28 32 34 35 37 47 45 36 35 35 37 37 39 36 34 32 29 29 30 27 22 31 19 19 27 19 18 20 20 20 22 22 24 23 30 43 58 68 70 53

GFSSW_850_rhum_018.txt.gz
RH
20 26 25 26 22 15 18 13 14 27 27 26 21 21 25 26 26 27 22 26 24 24 22 19 20 21 21 22 20 18 30 40 35 34 32 26 27 27 28 30 30 30 30 30 29
19 23 25 23 16 15 16 13 26 23 22 22 23 23 24 25 25 22 25 24 23 22 24 20 18 18 21 23 23 27 44 33 26 28 31 26 27 26 28 28 29 29 29 29 30
17 18 24 21 16 15 13 24 22 22 22 22 22 23 23 27 24 26 25 24 22 20 22 21 19 21 23 24 24 26 36 29 28 27 28 28 28 28 30 33 30 29 30 31 33
16 16 23 19 14 13 23 22 22 25 28 28 27 26 22 27 25 24 24 20 21 21 21 18 18 22 27 31 24 30 27 28 29 27 26 26 28 30 31 30 31 31 32 33 34
17 16 22 17 14 24 23 25 28 26 23 21 22 23 25 23 26 23 21 22 22 21 20 18 19 22 28 27 27 31 29 28 28 26 26 26 28 29 28 28 29 31 33 34 36
17 16 22 15 24 28 28 28 24 23 20 20 22 23 25 25 25 25 23 22 23 22 21 20 21 22 24 24 28 28 27 26 25 25 26 26 26 24 26 26 28 31 33 34 36
20 17 22 16 29 29 27 24 21 21 21 22 22 23 21 26 25 25 25 20 16 23 22 22 22 22 25 27 25 25 29 26 26 25 24 24 28 27 24 24 25 27 30 33 35
19 20 21 17 28 29 25 22 21 20 19 22 22 22 25 24 25 23 24 20 16 18 20 22 22 23 24 24 24 26 29 38 27 25 24 29 40 24 24 24 25 26 28 30 33
19 23 21 20 28 28 23 24 22 19 17 20 20 20 22 22 22 23 22 23 20 17 20 21 20 24 24 26 30 29 32 35 32 26 26 31 38 27 25 25 25 26 28 30 32
24 24 23 27 27 24 23 22 21 21 21 18 18 19 22 22 20 22 23 20 19 18 17 18 20 26 24 26 36 28 21 23 37 26 28 32 35 28 26 25 25 26 29 30 33
23 25 26 25 24 24 22 22 22 20 22 23 22 21 21 20 20 20 19 19 19 14 18 15 23 29 23 23 22 21 18 19 30 27 30 27 31 31 27 27 26 27 30 31 34
26 27 26 26 25 24 27 28 24 22 22 21 21 22 21 21 20 18 18 17 15 19 14 19 28 22 19 19 20 18 17 27 28 27 31 29 30 30 27 27 30 30 32 32 34
28 28 28 26 26 26 32 19 18 22 19 23 21 22 22 21 25 23 20 19 18 18 20 25 22 18 18 20 21 16 22 25 23 29 29 30 35 35 29 30 31 31 31 31 34
29 29 27 26 29 27 19 18 18 17 22 21 20 19 22 23 26 22 21 22 19 22 21 22 18 19 18 22 24 26 26 23 23 28 38 30 42 38 36 35 30 28 29 29 34
30 29 27 32 26 28 20 22 20 22 28 20 21 21 21 24 25 23 22 20 22 21 22 30 26 26 23 26 25 24 24 26 29 32 31 37 41 42 35 37 33 27 28 30 34
29 29 28 27 26 26 23 24 21 27 33 24 20 20 19 22 23 22 22 20 21 20 24 27 26 25 27 26 25 24 28 27 28 34 43 36 34 46 38 32 30 27 29 31 36
29 28 27 29 36 22 19 23 33 29 21 24 24 20 22 24 23 24 25 29 31 34 27 26 26 26 22 26 26 24 28 36 38 47 39 27 31 42 32 31 30 29 29 32 39
29 28 27 27 25 22 18 30 30 22 24 23 23 22 25 27 26 22 24 29 30 32 29 27 34 30 23 27 29 32 27 32 32 33 29 26 32 44 30 28 27 27 29 35 43
29 29 28 26 24 20 27 33 41 28 21 23 24 24 28 25 26 23 31 33 36 33 41 31 36 28 27 24 23 26 31 23 26 23 28 27 38 32 30 27 25 27 31 39 48
31 33 26 24 23 22 35 35 32 30 26 23 26 26 24 26 25 23 27 35 34 31 28 29 36 27 30 28 22 21 17 27 27 35 34 28 31 43 39 29 29 30 35 42 51
30 39 26 25 22 30 39 36 33 35 34 31 27 25 27 28 26 27 32 37 32 31 29 24 27 31 26 28 27 29 25 20 21 24 34 36 38 24 32 31 30 29 38 45 54
35 47 26 24 34 27 38 32 31 33 33 31 29 32 31 31 31 32 35 41 34 30 29 28 33 32 30 23 21 25 23 20 28 26 28 28 32 26 26 27 26 32 41 48 56
46 39 26 32 43 46 37 39 38 34 36 31 34 35 31 34 41 35 41 34 32 34 38 35 32 35 34 32 23 26 23 19 20 21 27 31 38 23 23 24 26 31 44 52 59
46 50 33 33 30 34 35 35 44 40 39 35 36 33 32 34 35 42 44 47 35 38 28 34 36 33 34 28 26 28 25 23 23 29 28 28 24 32 27 28 26 35 48 57 62
35 52 44 51 38 30 30 34 40 43 38 37 36 35 31 35 34 38 42 46 40 44 34 32 42 32 31 28 24 26 30 27 30 27 29 26 26 27 28 25 28 42 53 63 64
42 44 39 42 33 38 38 37 36 42 38 36 38 34 32 35 38 36 36 36 37 34 30 34 43 27 30 23 22 27 27 25 26 26 26 24 28 24 22 25 36 51 62 69 64
36 33 42 45 36 37 40 36 37 39 45 43 36 36 38 39 37 36 34 32 32 31 35 35 38 33 46 22 30 47 26 26 21 22 22 28 28 24 27 34 47 61 69 69 47

GFSSW_850_rhum_021.txt.gz
RH
28 26 25 20 15 17 11 11 18 23 24 20 22 27 28 27 24 18 20 23 20 22 20 18 19 21 19 21 21 21 46 48 39 37 36 28 29 29 30 30 30 29 30 31 31
24 25 21 16 14 15 11 23 23 23 21 23 25 26 27 24 21 22 25 23 20 19 19 21 22 19 21 23 23 30 53 42 33 32 33 29 28 30 31 30 30 31 32 33 34
20 24 20 15 15 12 22 21 21 22 23 23 23 23 23 28 21 24 23 22 22 20 19 19 22 19 24 23 26 30 43 33 32 30 28 31 31 30 32 36 31 33 34 34 36
18 24 18 15 13 21 21 20 23 26 23 21 22 24 24 26 30 24 20 21 20 21 20 19 21 24 31 36 27 37 31 30 29 27 26 30 30 31 31 32 32 33 34 35 37
17 24 16 12 20 21 21 26 27 22 21 23 23 24 22 23 27 26 20 21 19 20 19 20 18 22 34 30 30 36 30 28 26 26 28 28 30 31 30 30 32 34 35 36 38
17 22 14 19 23 24 26 23 21 21 22 24 24 23 20 25 26 25 20 20 18 20 20 19 22 24 26 30 34 29 27 26 26 26 27 29 29 26 28 29 31 33 34 36 38
17 21 15 26 27 26 23 21 21 20 23 22 23 21 22 25 25 25 19 14 19 20 21 22 22 21 23 28 27 26 32 28 27 27 27 25 30 30 26 26 30 32 34 36 40
18 20 18 28 26 24 21 21 19 20 22 23 22 21 24 23 24 24 20 17 20 20 22 22 20 22 23 25 27 33 34 43 31 26 25 30 44 26 24 25 26 29 30 34 37
20 18 23 28 28 23 23 21 18 18 21 20 20 20 23 21 22 22 21 20 18 19 20 20 19 24 26 34 37 34 41 41 35 26 30 35 42 26 24 25 26 29 30 33 36
22 18 26 28 24 23 22 21 18 18 19 18 20 20 21 21 20 21 22 18 18 18 18 19 23 33 30 36 42 31 28 38 40 33 32 39 37 29 25 26 26 29 31 33 37
22 22 28 26 23 24 22 23 23 18 20 22 21 21 21 21 19 19 18 18 19 18 20 19 32 31 25 23 23 24 23 31 35 28 31 37 39 35 27 27 28 31 32 33 38
25 26 24 24 23 25 31 28 25 23 22 21 20 20 20 20 18 17 17 17 17 22 18 28 30 24 22 22 22 23 18 29 32 31 30 31 38 35 29 28 31 31 32 34 37
27 26 25 25 24 25 29 24 22 24 22 22 21 20 20 19 22 20 18 19 20 24 28 31 23 20 19 27 27 29 27 28 24 32 29 31 40 40 32 31 30 31 31 35 36
27 27 26 25 27 26 21 21 21 18 32 24 21 20 21 24 24 21 21 22 21 26 24 25 24 24 23 28 28 29 26 24 27 32 40 32 47 42 40 39 32 32 32 33 37
29 28 27 32 26 30 20 22 21 22 38 22 22 20 21 23 24 22 20 19 25 26 26 31 28 30 28 28 27 28 25 26 29 34 32 38 47 47 43 44 40 33 31 34 39
30 28 27 26 27 27 22 24 23 33 36 27 21 21 22 23 23 22 22 21 23 23 28 28 25 28 28 27 28 26 31 30 32 42 52 41 41 48 48 41 36 32 31 36 41
29 28 27 25 26 22 20 22 40 38 21 28 27 22 26 28 26 25 31 36 39 35 32 30 29 28 24 28 26 33 35 43 36 52 50 40 39 43 38 35 32 30 33 40 44
27 26 25 25 25 23 20 36 36 26 29 24 24 25 28 28 27 28 31 41 37 38 40 33 32 32 26 27 29 34 31 37 32 39 34 26 34 43 35 29 28 30 36 41 46
28 27 26 24 24 22 26 49 43 33 26 26 25 28 30 27 26 29 40 41 41 37 39 34 35 28 29 28 24 24 31 25 30 30 34 34 40 34 33 31 29 33 37 46 51
28 26 24 23 22 23 40 45 40 33 33 29 30 29 31 31 28 29 36 38 38 32 31 32 35 30 31 28 26 22 20 27 34 34 37 36 39 43 44 38 33 34 43 50 55
30 35 23 23 24 31 51 40 38 33 32 32 36 28 31 31 30 34 42 40 36 37 31 30 33 29 28 31 29 31 28 23 26 36 36 43 39 30 42 36 34 39 46 52 56
41 49 25 24 34 44 52 36 32 35 32 32 35 37 34 38 39 39 43 42 34 31 31 31 38 37 29 24 23 28 25 24 37 31 34 36 37 28 32 30 31 41 51 55 58
43 33 26 32 49 58 40 42 42 36 38 34 38 36 33 39 43 40 48 34 32 38 39 36 38 40 32 31 25 27 26 22 25 28 32 35 38 28 27 29 31 48 54 58 61
45 47 27 30 36 44 42 42 45 40 37 35 37 34 34 37 37 45 53 46 36 40 29 35 42 36 33 29 28 30 25 23 26 36 34 35 29 32 32 32 46 54 58 61 60
40 54 43 48 36 35 36 41 46 42 38 36 36 37 35 38 38 42 52 48 41 44 36 36 42 37 37 37 32 32 32 32 31 30 31 29 28 30 32 31 48 56 58 59 60
34 38 41 40 37 36 41 38 42 44 40 38 40 35 36 38 40 40 45 47 41 39 33 38 40 36 34 24 23 27 30 34 34 32 33 29 31 26 27 43 52 55 58 62 53
34 39 41 45 40 43 46 39 41 40 43 42 40 39 41 40 37 35 34 33 34 37 40 42 44 40 39 39 41 46 37 32 27 27 26 29 27 27 36 46 56 62 62 62 17